Regional Weather Roundup
Issued by NWS Bismarck, ND

Home | Current Version | Previous Version | Text Only | Print | Product List | Glossary On
Versions: 1 2 3 4 5 6 7 8 9 10 11 12 13 14 15 16 17 18 19 20 21 22 23 24 25 26 27 28 29 30 31 32 33 34 35 36 37 38 39 40 41 42 43 44 45 46 47 48 49 50
000
ASUS43 KBIS 280720
RWRBIS

NWR BROADCAST TEXT
NATIONAL WEATHER SERVICE BISMARCK ND
100 AM CST SUN DEC 28 2014

NOTE: "FAIR" INDICATES FEW OR NO CLOUDS BELOW 12,000 FEET WITH NO
SIGNIFICANT WEATHER AND/OR OBSTRUCTIONS TO VISIBILITY.


CITY           SKY/WX    TMP DP  RH WIND       PRES   REMARKS
WILLISTON      CLOUDY    16  12  84 NE8       30.01F WCI   5
MINOT          FLURRIES   7  -1  70 N9        30.08R WCI  -7
MINOT AFB      MIX PCPN   5  -2  72 N8        30.08S WCI  -8
BISMARCK       CLOUDY    15  13  91 NE3       30.04F
DICKINSON      CLOUDY    20  15  81 S3        29.93F
GARRISON         N/A     13   9  84 NE8       30.03S WCI   2
HETTINGER ARPT CLEAR     15  11  83 CALM      29.97F
JAMESTOWN      CLOUDY    20  15  81 N10       30.03R WCI   9
BEACH          CLOUDY    19  18  93 SW5       29.93F WCI  13
CARRINGTON     CLOUDY    10  10 100 MISG      30.06S
CROSBY         CLOUDY    12  10  92 E8        30.05R WCI   1
HARVEY         PTSUNNY   10   7  85 NE7       30.07R WCI   0
HAZEN          LGT SNOW  19  16  86 E6        30.03S WCI  11
LINTON         CLOUDY    14  14 100 E3        30.02F
MANDAN         CLOUDY    18  14  86 CALM      30.03S
OAKES            N/A     18  18 100 W3        30.05S
RUGBY          FAIR       7   1  78 NE8       30.09R WCI  -6
STANLEY        CLOUDY    10   9  92 E8        30.01S WCI  -1
WATFORD CITY   CLOUDY    18  16  93 E8        29.97S WCI   7
$$

CITY           SKY/WX    TMP DP  RH WIND       PRES   REMARKS
GRAND FORKS    CLOUDY     5   1  83 N16       30.14R WCI -14
GRAND FORKS AF CLOUDY     4   2  88 N15       30.14R WCI -14
DEVILS LAKE    CLOUDY     3  -4  72 E10       30.08S WCI -12
FARGO          CLOUDY    18  15  88 N16       30.06R WCI   3
CANDO          CLOUDY     0  -2  92 E3        30.10S
CAVALIER       CLOUDY     1  -2  85 N14       30.17R WCI -17
GWINNER        CLOUDY    18  18 100 SW8       30.05S WCI   7
LANGDON        CLOUDY     1  -2  85 N10       30.08S WCI -14
ROLLA          CLOUDY     0   0 100 N8        30.07S WCI -15
WALHALLA       FLURRIES   1   0  92 N9        30.17S WCI -14
$$

CITY           SKY/WX    TMP DP  RH WIND       PRES   REMARKS
ABERDEEN       CLOUDY    12   8  84 CALM      30.06F
MOBRIDGE       CLOUDY    15  10  80 CALM      30.00S
BUFFALO          N/A     23  16  74 W9        29.87F WCI  13
RAPID CITY     PTCLDY    15   7  70 W5        29.98F WCI   8
GLASGOW        MOCLDY    22  17  81 E13       29.91S WCI  10
SIDNEY         MOCLDY    19  18  93 N8        29.98F WCI   9
WOLF POINT     CLOUDY    19  14  81 E14       29.97S WCI   6
GLENDIVE       CLOUDY    19  18  93 S3        29.93S
MILES CITY     CLOUDY    22  18  85 S6        29.92F WCI  14
BAKER          PTCLDY    22  15  75 SW9       29.92F WCI  12
$$

CITY           SKY/WX    TMP DP  RH WIND       PRES   REMARKS
BILLINGS       CLOUDY    22  11  62 SW15      29.87F WCI   9
GREAT FALLS    CLOUDY    28  24  85 S15       29.77F WCI  16
REGINA         MOCLDY    -4  -9  77 E9        30.08  WCI -20
ESTEVAN        CLOUDY     7   3  85 E9        30.05  WCI  -7
$$




USA.gov is the U.S. government's official web portal to all federal, state and local government web resources and services.